Regional Weather Roundup
Issued by NWS

Home | Current Version | Previous Version | Text Only | Print | Product List | Glossary On
Versions: 1 2 3 4 5 6 7 8 9 10 11 12 13 14 15 16 17 18 19 20 21 22 23 24 25 26 27 28 29 30 31 32 33 34 35 36 37 38 39 40 41 42 43 44 45 46 47 48 49 50
000
ASUS46 KSTO 250404
RWRCA

NORTHERN AND CENTRAL CA REGIONAL WEATHER ROUNDUP
NATIONAL WEATHER SERVICE SACRAMENTO CA
900 PM PDT FRI MAR 24 2017

NOTE: FAIR INDICATES FEW OR NO CLOUDS BELOW 12,000 FEET WITH NO
SIGNIFICANT WEATHER AND/OR OBSTRUCTIONS TO VISIBILITY.

CAZ001-003-250500-
NORTHWEST AREA

CITY           SKY/WX    TMP DP  RH WIND       PRES   REMARKS
CRESCENT CITY  CLOUDY    52  49  89 S7        30.15R
UKIAH          CLOUDY    53  47  79 CALM      30.16R
$$

CAZ006-505>513-250500-
BAY AREA

CITY           SKY/WX    TMP DP  RH WIND       PRES   REMARKS
SANTA ROSA     CLOUDY    53  50  89 S5        30.15R
SAN RAFAEL     N/A       57  MM  MM MISG
NAPA           CLOUDY    56  52  86 E3        30.17R
CONCORD        CLOUDY    57  53  86 CALM      30.17R
OAKLAND CITY   N/A      MM  MM  MM MISG
OAKLAND        CLOUDY    56  54  93 CALM      30.18R
SAN FRAN CITY  N/A       54  MM  90 MISG
SAN FRAN ARPT  CLOUDY    54  50  86 NW5       30.17R
LIVERMORE      CLOUDY    54  51  90 CALM      30.16R
HAYWARD        CLOUDY    56  53  90 CALM      30.17R
REDWOOD CITY   N/A       MM  MM  MM MISG
MOFFETT ARPT   CLOUDY    55  54  96 CALM      30.18R
SAN JOSE ARPT  LGT RAIN  55  53  93 VRB3      30.17R FOG
$$
CAZ034-037-514>518-250500-
CENTRAL COAST

CITY           SKY/WX    TMP DP  RH WIND       PRES   REMARKS
WATSONVILLE    LGT RAIN  53  53 100 CALM      30.18S
SALINAS        CLOUDY    55  53  93 NW6       30.16S
MONTEREY       LGT RAIN  54  54 100 E3        30.17S FOG
SAN LUIS OBISP LGT RAIN  58  54  86 SE10      30.17F
SANTA MARIA    LGT RAIN  56  53  90 CALM      30.21S
$$
CAZ015-016-250500-
NORTHERN SACRAMENTO VALLEY

CITY           SKY/WX    TMP DP  RH WIND       PRES   REMARKS
REDDING        CLOUDY    50  48  93 S10       30.15R
RED BLUFF      LGT RAIN  51  48  89 SE12      30.17S
OROVILLE       LGT RAIN  53  48  83 SE8       30.19S
$$
CAZ016>018-250500-
SOUTHERN SACRAMENTO VALLEY

CITY           SKY/WX    TMP DP  RH WIND       PRES   REMARKS
AUBURN         CLOUDY    48  45  87 SE7       30.18S
BEALE AFB      LGT RAIN  54  48  82 CALM      30.17S
LINCOLN        CLOUDY    54  45  71 S7        30.17S
MARYSVILLE     LGT RAIN  52  48  86 SE6       30.19R
SAC INTL ARPT  CLOUDY    54  48  80 S13       30.18R
MATHER AIRPORT NOT AVBL
DOWNTOWN SAC   N/A       54  MM  MM MISG
SAC EXEC ARPT  CLOUDY    54  48  80 S3        30.18S
VACAVILLE      LGT RAIN  53  53 100 SE6       30.18S FOG
TRAVIS AFB     CLOUDY    53  53  97 SE8       30.16S
$$
CAZ019>021-250500-
SAN JOAQUIN VALLEY

CITY           SKY/WX    TMP DP  RH WIND       PRES   REMARKS
STOCKTON       CLOUDY    54  51  90 S6        30.18R
MODESTO        CLOUDY    56  49  77 CALM      30.18R
MERCED         CLOUDY    54  48  80 SE6       30.18R
LEMOORE        LGT RAIN  53  50  89 W7        30.20R
FRESNO         LGT RAIN  54  50  86 NE5       30.19F
HANFORD        LGT RAIN  55  53  93 CALM      30.18F
PORTERVILLE    CLOUDY    57  52  83 W7        30.17F
BAKERSFIELD    CLOUDY    60  40  47 N6        30.17R
$$
CAZ011-012-071-250500-
NORTHERN MOUNTAINS

CITY           SKY/WX    TMP DP  RH WIND       PRES   REMARKS
YREKA          CLOUDY    44  36  73 S9        30.11R
MOUNT SHASTA   CLOUDY    39  36  89 E5        30.11R
ALTURAS        MOCLDY    37  35  92 W8        30.11S WCI  31
$$
CAZ011-012-071-250500-
SIERRA NEVADA MTNS

CITY           SKY/WX    TMP DP  RH WIND       PRES   REMARKS
BLUE CANYON    LGT RAIN  35  35 100 S8        30.16R VSB 1/2 WCI  29
TRUCKEE        DRIZZLE   34  32  93 CALM      30.13R
TAHOE VLY ARPT CLOUDY    36  33  89 SW6       30.12R WCI  31
MAMMOTH LAKES  MIX PCPN  36  32  84 NW3       30.18S
$$




USA.gov is the U.S. government's official web portal to all federal, state and local government web resources and services.